Regional Weather Roundup
Issued by NWS Charleston, SC

Current Version | Previous Version | Graphics & Text | Print | Product List | Glossary On
Versions: 1 2 3 4 5 6 7 8 9 10 11 12 13 14 15 16 17 18 19 20 21 22 23 24 25 26 27 28 29 30 31 32 33 34 35 36 37 38 39 40 41 42 43 44 45 46 47 48 49 50
255 ASUS42 KCHS 112313 RWRCHS REGIONAL WEATHER ROUNDUP NATIONAL WEATHER SERVICE CHARLESTON SC 600 PM EST THU FEB 11 2016 NOTE: "FAIR" INDICATES FEW OR NO CLOUDS BELOW 12,000 FEET WITH NO SIGNIFICANT WEATHER AND/OR OBSTRUCTIONS TO VISIBILITY. NOT ALL STATIONS ARE QUALITY CONTROLLED BY THE NATIONAL WEATHER SERVICE. USE DATA WITH CAUTION...ESPECIALLY DEWPOINT OBSERVATIONS. SCZ027-030-031-034>040-042>050-120000- ...SOUTHEAST SOUTH CAROLINA... CITY SKY/WX TMP DP RH WIND PRES REMARKS N CHARLESTON PTCLDY 47 28 47 S6 30.18R WATERFRONT PRK N/A 48 33 56 S6 30.04R MOUNT PLEASANT FAIR 46 32 57 S5 30.19S JOHNS ISLAND FAIR 46 32 57 S7 30.19S PINOPOLIS N/A 52 34 50 VRB2 30.10S MONCKS CORNER FAIR 46 25 42 S3 30.18R SUMMERVILLE FAIR 52 30 43 N3 30.18R BEAUFORT MCAS CLEAR 48 35 60 S6 30.19R BEAUFORT ARPT FAIR 48 32 53 S3 30.18S HILTON HEAD IS CLEAR 50 37 62 SE5 30.20R WALTERBORO CLEAR 52 32 46 SE5 30.18R ALLENDALE FAIR 52 28 40 CALM 30.16R ...SOUTHERN MIDLANDS AND PEE DEE... CITY SKY/WX TMP DP RH WIND PRES REMARKS GEORGETOWN FAIR 45 30 57 S6 30.20R KINGSTREE FAIR 45 28 53 CALM 30.19R ORANGEBURG CLEAR 53 23 31 W3 30.17R BARNWELL FAIR 54 30 40 CALM 30.17R AIKEN FAIR 50 25 37 CALM 30.19R MANNING FAIR 43 30 61 CALM 30.18R COLUMBIA CLEAR 52 23 32 CALM 30.17R SUMTER CLEAR 45 25 45 NE3 30.15R FLORENCE CLEAR 46 22 38 CALM 30.19R MYRTLE BEACH NOT AVBL N MYRTLE BEACH CLEAR 43 30 60 SW8 30.21R $$ GAZ063-065-086>088-099>101-113>116-118-119-134>141-150-120000- ...SOUTHEAST GEORGIA... CITY SKY/WX TMP DP RH WIND PRES REMARKS SAVANNAH ARPT CLEAR 53 33 46 SE9 30.17R HUNTER AAF CLEAR 51 40 65 SE8 30.15R FORT STEWART CLEAR 55 41 58 E6 30.14R STATESBORO CLEAR 57 34 42 CALM 30.15R SYLVANIA CLEAR 56 40 54 CALM 30.16R CLAXTON FAIR 60 44 54 CALM 30.14R ...CSRA...CENTRAL AND FAR SOUTHEAST GEORGIA... CITY SKY/WX TMP DP RH WIND PRES REMARKS THOMSON CLEAR 55 31 39 CALM 30.20R AUGUSTA-BUSH CLEAR 53 25 33 SW3 30.16R AUGUSTA-DANIEL CLEAR 54 24 31 SW3 30.16R HAZE SWAINSBORO FAIR 57 32 38 CALM 30.16R VIDALIA PTCLDY 61 41 48 SW5 30.14R EASTMAN FAIR 62 40 43 CALM 30.15S HAZLEHURST FAIR 64 42 45 CALM 30.13R ALMA CLEAR 64 41 42 W3 30.13R WAYCROSS CLEAR 67 45 44 W7 30.13R JESUP FAIR 66 43 42 CALM 30.14R BAXLEY FAIR 64 41 42 W3 30.13R BRUNSWICK CLEAR 57 46 67 S7 30.16R SAINT SIMONS CLEAR 54 46 74 S10G18 30.15R $$ SCZ027-028-034-036>038-045-046-048>050-GAZ119-141-120000- ...LAKE AND SUPPLEMENTAL COASTAL OBSERVATIONS... STATION/POSITION TIME TEMP WIND PRES WAVE SWELL AIR SEA DIR/SP/G HT/PER HT/PER/DIR (UTC) (F) (DEG/KT/KT) (MB) (FT/S) (FT/S/D) WINYAH BAY NOT AVBL LAKE MURRAY 2200 53 260/ 3/ 6 1020.0R ACE BASIN NERRS 2145 50 160/ 2 1022.0 FORT PULASKI 2200 52 49 1021.8R SAPELO ISLAND 2200 56 150/ 14 1020.0S $$ ANZ835-935-AMZ111-154-330-350-352-354-370-450-454-472-120000- ...C-MAN AND BUOY OBSERVATIONS... STATION/POSITION TIME TEMP WIND PRES WAVE SWELL AIR SEA DIR/SP/G HT/PER HT/PER/DIR (UTC) (F) (DEG/KT/KT) (MB) (FT/S) (FT/S/D) BUOY 41004 2250 50 64 220/ 6/ 8 1022.7R 3/ 6 3/ 6 BUOY 41008 2250 55 53 170/ 14/ 16 1021.6R 2/ 4 FOLLY BEACH CMAN 2300 48 180/ 8/ 9 1022.5R CAPERS NEARSHORE 2208 48 200/ 10/ 14 1022.1R FRIPP NEARSHORE 2200 50 170/ 6/ 8 1021.4R STATION/POSITION TIME TEMP WIND PRES WAVE SWELL AIR SEA DIR/SP/G HT/PER HT/PER/DIR (UTC) (F) (DEG/KT/KT) (MB) (FT/S) (FT/S/D) 5E ST. MARYS GA 2221 56 N/A 3/ 4 2/ 60/13 FRYING PAN BUOY 2200 44 57 260/ 8/ 12 1022.6R BUOY 41025 2250 40 60 300/ 16/ 19 1022.8R 5/ 4 2/ 90/ 7 CAPE LOOKOUT NC NOT AVBL BUOY 41002 2250 54 68 300/ 17/ 23 N/A 9/ 8 3/360/12 BUOY 41010 2220 61 72 1025.0R ST AUGUSTINE FL 2300 57 58 170/ 18/ 21 1023.4R $$

USA.gov is the U.S. government's official web portal to all federal, state and local government web resources and services.